Zanesville, OH

1:45 AM EDT on May 21, 2018 (GMT -0400)
Zanesville Municipal

Weather History for KZZV - January, 2014

Change the Weather History Date:

Saturday, January 4, 2014

  Actual Average Record
Temperature  
Mean Temperature 21 °F 29 °F  
Max Temperature 35 °F 37 °F 68 °F (1997)
Min Temperature 6 °F 21 °F -7 °F (1904)
Degree Days  
Heating Degree Days 44 36  
Month to date heating degree days 177 144  
Since 1 July heating degree days 2306 2289  
Cooling Degree Days 0 0  
Month to date cooling degree days 0 0  
Year to date cooling degree days 0 0  
Moisture  
Dew Point 8 °F    
Average Humidity 59    
Maximum Humidity 80    
Minimum Humidity 38    
Precipitation  
Precipitation 0.00 in 0.09 in 2.20 in (2004)
Month to date precipitation T 0.36  
Year to date precipitation T 0.36  
Sea Level Pressure  
Sea Level Pressure 30.21 in    
Wind  
Wind Speed 7 mph (South)    
Max Wind Speed 18 mph    
Max Gust Speed 25 mph    
Visibility 10 miles    
Events      
T = Trace of Precipitation, MM = Missing Value Source: NWS Daily Summary

Daily Weather History Graph

Daily Weather History Graph

Search for Another Location

Airport or City:

Astronomy

Jan. 04, 2014 Rise Set
Actual Time 7:49 AM EST 5:15 PM EST
Civil Twilight 7:19 AM EST 5:46 PM EST
Nautical Twilight 6:45 AM EST 6:19 PM EST
Astronomical Twilight 6:12 AM EST 6:52 PM EST
Moon 9:54 AM EST (1/4) 9:33 PM EST (1/4)
Length of Visible Light 10h 26m
Length of Day
9h 26m
Waxing Crescent, 15% of the Moon is Illuminated
Jan 4
Waxing Crescent
Jan 7
First Quarter
Jan 15
Full
Jan 24
Last Quarter
Jan 30
New

Hourly Weather History & Observations

Time (EST) Temp. Windchill Dew Point Humidity Pressure Visibility Wind Dir Wind Speed Gust Speed Precip Events Conditions
12:53 AM 8.1 °F -3.2 °F 1.9 °F 76% 30.33 in 10.0 mi SSE 6.9 mph - N/A   Clear
1:53 AM 9.0 °F 0.6 °F 3.0 °F 77% 30.32 in 10.0 mi SE 4.6 mph - N/A   Clear
2:53 AM 8.1 °F -0.5 °F 1.9 °F 76% 30.31 in 10.0 mi SE 4.6 mph - N/A   Clear
3:53 AM 8.1 °F 1.4 °F 3.0 °F 80% 30.30 in 10.0 mi SE 3.5 mph - N/A   Clear
4:53 AM 7.0 °F -3.3 °F 1.9 °F 80% 30.29 in 10.0 mi SSE 5.8 mph - N/A   Clear
5:53 AM 8.1 °F -0.5 °F 1.9 °F 76% 30.30 in 10.0 mi South 4.6 mph - N/A   Clear
6:53 AM 9.0 °F -2.2 °F 1.9 °F 73% 30.28 in 10.0 mi SSE 6.9 mph - N/A   Clear
7:53 AM 9.0 °F -0.9 °F 1.9 °F 73% 30.28 in 10.0 mi SSE 5.8 mph - N/A   Clear
8:53 AM 14.0 °F 2.0 °F 3.9 °F 64% 30.28 in 10.0 mi South 9.2 mph - N/A   Clear
9:53 AM 19.0 °F 7.5 °F 6.1 °F 57% 30.27 in 10.0 mi South 10.4 mph - N/A   Clear
10:53 AM 24.1 °F 13.7 °F 8.1 °F 51% 30.25 in 10.0 mi South 10.4 mph - N/A   Clear
11:53 AM 30.0 °F 21.1 °F 9.0 °F 41% 30.20 in 10.0 mi SSW 10.4 mph - 0.01 in   Clear
12:53 PM 32.0 °F 22.1 °F 10.0 °F 40% 30.16 in 10.0 mi SSW 13.8 mph - 0.04 in   Clear
1:53 PM 34.0 °F 26.0 °F 10.9 °F 38% 30.14 in 10.0 mi South 10.4 mph - 0.05 in   Clear
2:53 PM 34.0 °F 26.0 °F 10.9 °F 38% 30.14 in 10.0 mi South 10.4 mph - 0.04 in   Clear
3:53 PM 35.1 °F 25.5 °F 12.0 °F 39% 30.13 in 10.0 mi South 15.0 mph 19.6 mph 0.02 in   Clear
4:53 PM 33.1 °F 26.9 °F 12.9 °F 43% 30.14 in 10.0 mi South 6.9 mph - 0.01 in   Clear
5:53 PM 30.9 °F 24.3 °F 12.0 °F 46% 30.12 in 10.0 mi South 6.9 mph - N/A   Clear
6:53 PM 30.0 °F 26.5 °F 10.9 °F 45% 30.11 in 10.0 mi SSW 3.5 mph - N/A   Clear
7:53 PM 28.0 °F 22.8 °F 10.9 °F 49% 30.12 in 10.0 mi South 4.6 mph - N/A   Clear
8:53 PM 28.0 °F 22.8 °F 10.9 °F 49% 30.12 in 10.0 mi SSW 4.6 mph - N/A   Clear
9:53 PM 21.0 °F - 12.0 °F 68% 30.13 in 10.0 mi Calm Calm - N/A   Clear
10:53 PM 19.9 °F 13.4 °F 12.9 °F 74% 30.13 in 10.0 mi SSE 4.6 mph - N/A   Mostly Cloudy
11:53 PM 27.0 °F 23.0 °F 12.0 °F 53% 30.12 in 10.0 mi South 3.5 mph - N/A   Partly Cloudy